DELTA 1 DEB, 10825

Orbit data source: Space-Track

DELTA 1 DEB, 10825 is space debris in SSO originally from a launch on Thu, 29 Jul 1976 UTC launched from the Air Force Western Test Range (AFWTR). Debris objects in space refer to the collection of defunct objects orbiting the Earth. Examples of debris include non-operational satellites, rocket bodies, and fragments generated from explosions, collisions, or faulty payload assembly.

Loading next visibility...
Identifier
10825, 1976-077BV
Orbit
SSO
Country
Flag of USUS
Related business
Manufacturer
Unknown
Mission
Spacecraft
Bus & Motor
Unknown
Mass
Unknown
Launch date (UTC)
1976-07-29 (50 years ago)
Launch vehicle
Unknown
Launch site
Air Force Western Test Range (AFWTR)
Object type
Payload
Rocket body
Debris
Shape & HBR
Unknown shape, 0.4 m
Radar Cross Section
Medium (>0.1 m² and <1 m²)

Expand to show TLE details & history
Last TLE update: 14 hours ago

TLE from 14 hours ago
0 DELTA 1 DEB
1 10825U 76077BV  26118.83327890 -.00000034  00000-0  95079-4 0  9993
2 10825 102.2780  79.4157 0043772 292.7369 123.5548 12.34770631241203
Epoch: 2026-04-28T19:59Z
TLE epoch observation values (Epoch: 2026-04-28T19:59:55.296Z)
Latitude
54.85644°
Longitude
-95.28582°
Altitude
1,556.925 km
Speed
7.085 km/s
True Right ascension
04h 05m 59s
True Declination
54° 42' 39"
Sunlit
Object was in daylight at epoch
Visualization orbit readout
Latitude
Unknown
Longitude
Unknown
Altitude
Unknown
Speed
Unknown
Apparent Right ascension
Unknown
Apparent Declination
Unknown
Sunlit
N/A
Visualization observer readout
Local Sidereal Time
17:43:49
Azimuth
Unknown
Elevation
Unknown
Doppler factor
Unknown
Orbital elements
Apogee altitude
1,561.047 km
Perigee altitude
1,491.847 km
Semi-major axis
7,904.584 km
Eccentricity
0.00438
Inclination
102.278°
RAAN
79.4157°
Arg. of periapsis
292.7369°
True anomaly
123.97154°
Mean anomaly
123.5548°
Eccentric anomaly
123.7633°
Mean motion
3.08834 °/min
Orbital period
116.57 mins
BSTAR
0.000095079
Loading maneuver chart data...
Computing Atmospheric mass density...
Loading historical data...
Loading historical data...
Loading historical data...
Loading historical data...
Loading historical data...
Loading historical data...
Loading historical data...

Documentation

Showing up to 5 results
|